STARLINK-34495

Last updated on Thu Jul 03 2025 00:02:07 GMT+0000 (Coordinated Universal Time)

1 64428U 25129S 25183.58335648 -.01561501 00000+0 -18538-1 0 9990 2 64428 70.0003 351.5461 0003426 264.3421 37.9611 15.63977370 3680
UTC large
Height (km)
Speed (km/s)
/
Latitude / Longitude
Inclination (degrees)
Orbital Period (minutes)
Azimuth
Elevation
Range (km)
Doppler Factor

Next 0 passes for location: London (51.5072 / 0.1276)

Sorry there are no passes over London.